Погода в Казыме

Россия / Ханты-Мансийский автономный округ - Югра     63°42′08″N   67°14′30″E
темп.,
°C
ветер,
м/с
пор.,
м/с
влажн.,
%
обл.,
%
осадки,
мм/ч
давл.,
гПа
погр.,
м
4 марта, чт
чт423:00−12ю259699 0.4 991146
02:00−12юз2596100 0.3 991154
05:00−13ююз2396100 0.5 99170
08:00−13ююв2496100 0.2 990125
11:00−10ю2494100 0.5 990329
14:00−7ю2493100 0.2 990408
17:00−7ю2594100 0.3 991281
20:00−8ю2497100 0.3 991107
5 марта, пт
пт523:00−9ююв239699 0.6 99159
02:00−10ю229698 0.1 99024
05:00−12ю229695 0.2 99125
08:00−13ю129695 0.1 99122
11:00−10ю129494 0.1 992186
14:00−8юз129196 0.0 993319
17:00−9з019698 0.1 99454
20:00−11зсз2296100 0.1 99552
6 марта, сб
сб623:00−16з229793 0.1 99720
02:00−18зсз229875 0.0 99720
05:00−19зсз229974 0.0 99820
08:00−19зсз129895 0.0 99824
11:00−15зсз129495 0.0 999204
14:00−12зсз239399 0.1 999378
17:00−12з239699 0.1 1000130
20:00−15сз2297100 0.2 100145
7 марта, вс
вс723:00−18ссз129798 0.2 100220
02:00−17сз1297100 0.1 100229
05:00−19сз129897 0.1 100320
08:00−19зсз119893 0.1 100421
11:00−16з129392 0.1 1005246
14:00−14зюз1290100 0.0 1005412
17:00−15зюз1296100 0.1 100655
20:00−19зсз229985 0.1 100720
8 марта, пн
пн823:00−22з2210089 0.1 100725
02:00−21з1298100 0.0 100726
05:00−22зюз129899 0.1 100820
08:00−22зюз129899 0.1 100850
11:00−19зюз239498 0.1 1008245
14:00−17зюз238899 0.0 1009476
17:00−19зсз119598 0.1 100920
20:00−24ссв009953 0.0 100920